TimeEDT,TemperatureF,Dew PointF,Humidity,Sea Level PressureIn,VisibilityMPH,Wind Direction,Wind SpeedMPH,Gust SpeedMPH,PrecipitationIn,Events,Conditions,WindDirDegrees,DateUTC
12:15 AM,66.2,64.4,94,30.15,7.0,SSW,4.6,-,N/A,,Mostly Cloudy,200,2013-06-24 04:15:00
12:35 AM,66.2,64.4,94,30.15,7.0,SSW,5.8,-,N/A,,Scattered Clouds,200,2013-06-24 04:35:00
12:55 AM,66.2,64.4,94,30.16,7.0,South,3.5,-,N/A,,Mostly Cloudy,190,2013-06-24 04:55:00
1:15 AM,66.2,64.4,94,30.15,7.0,SW,4.6,-,N/A,,Mostly Cloudy,220,2013-06-24 05:15:00
1:35 AM,66.2,64.4,94,30.15,10.0,SW,4.6,-,N/A,,Mostly Cloudy,220,2013-06-24 05:35:00
1:55 AM,68.0,64.4,88,30.15,10.0,South,3.5,-,N/A,,Clear,190,2013-06-24 05:55:00
2:15 AM,66.2,64.4,94,30.14,7.0,SSW,4.6,-,N/A,,Clear,200,2013-06-24 06:15:00
2:35 AM,64.4,64.4,100,30.13,7.0,SSW,4.6,-,N/A,,Clear,200,2013-06-24 06:35:00
2:55 AM,64.4,64.4,100,30.13,7.0,SSW,4.6,-,N/A,,Clear,200,2013-06-24 06:55:00
3:15 AM,64.4,64.4,100,30.14,7.0,SSW,4.6,-,N/A,,Clear,210,2013-06-24 07:15:00
3:35 AM,64.4,64.4,100,30.14,10.0,SSW,4.6,-,N/A,,Clear,200,2013-06-24 07:35:00
3:55 AM,66.2,62.6,88,30.13,10.0,SSW,4.6,-,N/A,,Clear,200,2013-06-24 07:55:00
4:15 AM,66.2,62.6,88,30.13,10.0,SW,3.5,-,N/A,,Clear,230,2013-06-24 08:15:00
4:35 AM,64.4,62.6,94,30.13,10.0,SSW,4.6,-,N/A,,Clear,210,2013-06-24 08:35:00
4:55 AM,64.4,62.6,94,30.14,10.0,SSW,4.6,-,N/A,,Scattered Clouds,210,2013-06-24 08:55:00
5:15 AM,64.4,62.6,94,30.14,7.0,SSW,4.6,-,N/A,,Mostly Cloudy,200,2013-06-24 09:15:00
5:35 AM,64.4,62.6,94,30.14,10.0,SSW,3.5,-,N/A,,Mostly Cloudy,210,2013-06-24 09:35:00
5:55 AM,64.4,62.6,94,30.14,10.0,Calm,Calm,-,N/A,,Overcast,0,2013-06-24 09:55:00
6:15 AM,64.4,62.6,94,30.14,10.0,SSW,5.8,-,N/A,,Mostly Cloudy,210,2013-06-24 10:15:00
6:35 AM,64.4,62.6,94,30.15,10.0,SW,3.5,-,N/A,,Overcast,230,2013-06-24 10:35:00
6:55 AM,68.0,62.6,83,30.15,10.0,WSW,3.5,-,N/A,,Overcast,250,2013-06-24 10:55:00
7:15 AM,68.0,62.6,83,30.15,10.0,Calm,Calm,-,N/A,,Overcast,0,2013-06-24 11:15:00
7:35 AM,68.0,62.6,83,30.16,10.0,Calm,Calm,-,N/A,,Scattered Clouds,0,2013-06-24 11:35:00
7:55 AM,68.0,64.4,88,30.16,10.0,Calm,Calm,-,N/A,,Scattered Clouds,0,2013-06-24 11:55:00
8:15 AM,69.8,64.4,83,30.16,10.0,Calm,Calm,-,N/A,,Clear,0,2013-06-24 12:15:00
8:35 AM,69.8,64.4,83,30.16,10.0,WSW,4.6,-,N/A,,Scattered Clouds,240,2013-06-24 12:35:00
8:55 AM,69.8,64.4,83,30.16,10.0,Calm,Calm,-,N/A,,Mostly Cloudy,0,2013-06-24 12:55:00
9:15 AM,69.8,64.4,83,30.16,10.0,WSW,3.5,-,N/A,,Scattered Clouds,240,2013-06-24 13:15:00
9:35 AM,71.6,64.4,78,30.16,10.0,SW,5.8,-,N/A,,Clear,220,2013-06-24 13:35:00
9:55 AM,71.6,64.4,78,30.15,10.0,SSW,3.5,-,N/A,,Scattered Clouds,210,2013-06-24 13:55:00
10:15 AM,75.2,64.4,69,30.15,10.0,WSW,4.6,-,N/A,,Scattered Clouds,240,2013-06-24 14:15:00
10:35 AM,73.4,66.2,78,30.15,10.0,WSW,4.6,-,N/A,,Scattered Clouds,240,2013-06-24 14:35:00
10:55 AM,77.0,62.6,61,30.15,10.0,WSW,6.9,-,N/A,,Clear,250,2013-06-24 14:55:00
11:15 AM,77.0,62.6,61,30.16,10.0,SW,6.9,-,N/A,,Clear,230,2013-06-24 15:15:00
11:35 AM,78.8,64.4,61,30.15,10.0,WSW,4.6,-,N/A,,Scattered Clouds,250,2013-06-24 15:35:00
11:55 AM,77.0,62.6,61,30.16,10.0,SW,3.5,-,N/A,,Mostly Cloudy,230,2013-06-24 15:55:00
12:15 PM,78.8,62.6,57,30.15,10.0,WSW,9.2,-,N/A,,Mostly Cloudy,240,2013-06-24 16:15:00
12:35 PM,78.8,62.6,57,30.15,10.0,West,3.5,-,N/A,,Scattered Clouds,280,2013-06-24 16:35:00
12:55 PM,77.0,62.6,61,30.15,10.0,SW,8.1,-,N/A,,Mostly Cloudy,230,2013-06-24 16:55:00
1:15 PM,78.8,62.6,57,30.15,10.0,WSW,3.5,-,N/A,,Mostly Cloudy,250,2013-06-24 17:15:00
1:35 PM,80.6,62.6,54,30.15,10.0,West,6.9,-,N/A,,Scattered Clouds,260,2013-06-24 17:35:00
1:55 PM,78.8,60.8,54,30.14,10.0,West,3.5,-,N/A,,Mostly Cloudy,270,2013-06-24 17:55:00
2:15 PM,80.6,60.8,51,30.12,10.0,WSW,8.1,16.1,N/A,,Scattered Clouds,250,2013-06-24 18:15:00
2:35 PM,80.6,60.8,51,30.11,10.0,West,8.1,17.3,N/A,,Scattered Clouds,280,2013-06-24 18:35:00
2:55 PM,80.6,60.8,51,30.10,10.0,West,5.8,17.3,N/A,,Clear,280,2013-06-24 18:55:00
3:15 PM,80.6,62.6,54,30.09,10.0,West,8.1,-,N/A,,Scattered Clouds,260,2013-06-24 19:15:00
3:35 PM,80.6,60.8,51,30.08,10.0,West,6.9,16.1,N/A,,Scattered Clouds,280,2013-06-24 19:35:00
3:55 PM,80.6,62.6,54,30.08,10.0,WNW,6.9,-,N/A,,Scattered Clouds,290,2013-06-24 19:55:00
4:15 PM,80.6,60.8,51,30.08,10.0,WNW,8.1,-,N/A,,Scattered Clouds,290,2013-06-24 20:15:00
4:35 PM,80.6,64.4,58,30.08,10.0,WNW,8.1,-,N/A,,Scattered Clouds,300,2013-06-24 20:35:00
4:55 PM,78.8,62.6,57,30.08,10.0,WNW,4.6,-,N/A,,Scattered Clouds,290,2013-06-24 20:55:00
5:15 PM,78.8,64.4,61,30.07,10.0,WNW,3.5,-,N/A,,Clear,290,2013-06-24 21:15:00
5:35 PM,80.6,62.6,54,30.06,10.0,West,4.6,-,N/A,,Clear,260,2013-06-24 21:35:00
5:55 PM,78.8,60.8,54,30.05,10.0,WNW,8.1,-,N/A,,Clear,300,2013-06-24 21:55:00
6:15 PM,78.8,60.8,54,30.05,10.0,WNW,4.6,-,N/A,,Clear,290,2013-06-24 22:15:00
6:35 PM,78.8,60.8,54,30.06,10.0,WNW,3.5,-,N/A,,Clear,300,2013-06-24 22:35:00
6:55 PM,78.8,62.6,57,30.06,10.0,Calm,Calm,-,N/A,,Scattered Clouds,0,2013-06-24 22:55:00
7:15 PM,78.8,62.6,57,30.05,10.0,Calm,Calm,-,N/A,,Clear,0,2013-06-24 23:15:00
7:35 PM,77.0,62.6,61,30.05,10.0,Calm,Calm,-,N/A,,Clear,0,2013-06-24 23:35:00
7:55 PM,75.2,62.6,65,30.05,10.0,Calm,Calm,-,N/A,,Clear,0,2013-06-24 23:55:00
8:15 PM,73.4,62.6,69,30.06,10.0,NW,3.5,-,N/A,,Clear,310,2013-06-25 00:15:00
8:35 PM,71.6,62.6,73,30.06,10.0,WNW,3.5,-,N/A,,Clear,300,2013-06-25 00:35:00
8:55 PM,71.6,62.6,73,30.06,10.0,NW,3.5,-,N/A,,Clear,310,2013-06-25 00:55:00
9:15 PM,71.6,62.6,73,30.07,10.0,NW,3.5,-,N/A,,Clear,310,2013-06-25 01:15:00
9:35 PM,69.8,62.6,78,30.08,10.0,Calm,Calm,-,N/A,,Scattered Clouds,0,2013-06-25 01:35:00
9:55 PM,71.6,62.6,73,30.08,10.0,Calm,Calm,-,N/A,,Mostly Cloudy,0,2013-06-25 01:55:00
10:15 PM,69.8,62.6,78,30.08,10.0,Calm,Calm,-,N/A,,Scattered Clouds,0,2013-06-25 02:15:00
10:35 PM,69.8,62.6,78,30.08,10.0,Calm,Calm,-,N/A,,Clear,0,2013-06-25 02:35:00
10:55 PM,69.8,62.6,78,30.08,10.0,Calm,Calm,-,N/A,,Clear,0,2013-06-25 02:55:00
11:15 PM,69.8,62.6,78,30.08,10.0,Calm,Calm,-,N/A,,Clear,0,2013-06-25 03:15:00
11:35 PM,69.8,62.6,78,30.07,10.0,SSW,6.9,-,N/A,,Clear,210,2013-06-25 03:35:00
11:55 PM,69.8,62.6,78,30.07,10.0,SSW,5.8,-,N/A,,Clear,210,2013-06-25 03:55:00